Date,TemperatureHighF,TemperatureAvgF,TemperatureLowF,DewpointHighF,DewpointAvgF,DewpointLowF,HumidityHigh,HumidityAvg,HumidityLow,PressureMaxIn,PressureMinIn,WindSpeedMaxMPH,WindSpeedAvgMPH,GustSpeedMaxMPH,PrecipitationSumIn
2013-1-1,77.6,65.4,53.3,60.4,56.7,51.3,96,75,53,30.23,30.05,10,2,15,0.00
2013-1-2,77.4,68.2,58.7,69.3,64.1,55.1,96,87,72,30.07,30.00,8,2,13,0.00
2013-1-3,73.7,65.5,59.5,68.2,63.5,58.4,98,93,79,30.18,30.04,6,2,12,0.30
2013-1-4,60.7,58.5,55.6,59.8,57.6,55.0,99,97,91,30.29,30.16,6,3,11,0.09
2013-1-5,72.5,63.1,56.0,61.4,57.6,52.5,96,83,64,30.31,30.19,9,3,12,0.00
2013-1-6,80.7,67.6,61.5,69.4,63.8,59.8,97,88,65,30.21,30.08,7,3,10,0.01
2013-1-7,66.8,63.0,59.5,64.3,59.6,54.3,96,89,73,30.22,30.11,10,5,16,0.04
2013-1-8,81.8,71.0,62.0,69.3,64.7,60.8,97,82,58,30.23,30.12,7,4,9,0.00
2013-1-9,84.1,75.6,68.9,71.8,67.9,65.1,96,78,56,30.28,30.17,11,4,12,0.00
2013-1-10,83.2,74.9,69.1,69.9,66.7,62.8,96,77,52,30.29,30.20,11,6,15,0.00
2013-1-11,82.8,72.4,64.5,68.6,64.1,60.9,95,77,50,30.26,30.13,12,3,19,0.00
2013-1-12,83.0,73.0,65.6,68.6,65.9,64.0,96,80,55,30.18,30.08,10,4,13,0.00
2013-1-13,80.9,72.3,65.3,68.0,64.6,61.8,93,78,57,30.17,30.06,9,3,10,0.00
2013-1-14,81.2,70.1,62.0,65.9,61.5,56.9,95,76,48,30.19,30.11,8,2,16,0.00
2013-1-15,81.6,69.6,60.7,66.8,62.4,58.0,96,80,52,30.15,30.06,9,2,11,0.00
2013-1-16,82.4,69.6,62.7,67.5,62.8,59.6,97,81,47,30.11,30.01,6,2,11,0.01
2013-1-17,70.3,62.5,54.4,69.4,58.0,45.3,97,86,62,30.17,29.99,13,6,24,0.17
2013-1-18,62.6,54.3,42.8,54.3,46.0,35.8,78,73,64,30.33,30.17,10,6,21,0.00
2013-1-19,75.1,63.7,54.5,60.4,54.6,47.9,85,73,57,30.28,30.13,10,5,14,0.00
2013-1-20,74.9,65.6,59.6,62.7,58.7,54.7,92,79,63,30.19,30.05,5,2,9,0.00
2013-1-21,75.3,65.3,58.7,62.1,57.2,51.6,86,75,60,30.12,30.04,9,2,13,0.00
2013-1-22,66.0,60.1,52.5,51.9,40.3,31.0,76,50,28,30.30,30.09,6,3,13,0.00
2013-1-23,69.3,56.4,47.0,44.7,38.8,31.9,83,54,30,30.38,30.28,6,2,12,0.00
2013-1-24,72.7,56.6,43.6,54.0,47.1,41.5,96,74,38,30.36,30.26,8,2,13,0.00
2013-1-25,74.7,59.1,46.7,58.7,49.1,45.1,97,73,36,30.33,30.19,6,1,8,0.00
2013-1-26,75.1,60.5,47.4,58.5,53.0,45.8,97,78,53,30.30,30.19,8,2,12,0.00
2013-1-27,78.6,64.1,51.4,60.9,53.9,49.4,97,73,40,30.32,30.21,7,2,10,0.01
2013-1-28,82.0,71.4,63.7,65.4,62.3,58.4,93,75,50,30.32,30.21,10,4,13,0.00
2013-1-29,84.1,72.0,62.7,67.9,64.8,60.6,96,80,52,30.24,30.09,10,5,12,0.00
2013-1-30,80.3,73.0,67.4,67.2,65.7,63.9,89,79,59,30.09,29.91,14,9,22,0.00
2013-1-31,71.3,57.6,48.8,67.2,45.3,35.0,94,66,42,30.26,29.92,13,6,20,0.17
2013-2-1,68.1,55.3,47.1,42.9,36.0,26.5,84,52,21,30.38,30.24,8,3,14,0.00
2013-2-2,72.0,57.2,47.6,47.0,41.6,30.5,85,59,24,30.33,30.17,7,3,10,0.00
2013-2-3,70.4,55.1,42.3,54.4,47.2,39.6,95,76,53,30.22,30.11,8,2,11,0.00
2013-2-4,69.8,54.5,42.6,54.4,41.8,34.0,96,68,27,30.16,30.05,7,1,10,0.00
2013-2-5,76.7,60.1,45.1,55.0,48.0,42.3,94,68,40,30.10,30.01,7,2,13,0.00
2013-2-6,78.5,68.3,59.3,62.0,58.8,54.8,90,73,50,30.11,30.03,8,2,11,0.00
2013-2-7,80.3,70.1,63.7,67.3,63.6,58.8,94,81,51,30.06,29.86,12,5,21,0.13
2013-2-8,75.8,66.7,58.0,66.9,61.5,55.0,95,84,62,30.10,29.91,9,5,13,0.01
2013-2-9,76.3,64.5,55.3,57.6,54.6,50.6,95,73,41,30.21,30.09,8,3,12,0.00
2013-2-10,81.2,70.1,62.3,62.5,59.5,55.4,86,70,49,30.25,30.13,13,6,19,0.00
2013-2-11,77.2,71.8,68.9,67.1,66.2,65.6,90,83,70,30.11,30.09,8,3,11,0.00
2013-2-12,81.4,72.8,68.1,70.6,68.4,65.7,95,86,67,30.10,29.95,11,5,16,0.00
2013-2-13,79.6,71.3,59.6,72.7,68.1,56.4,98,90,76,30.01,29.86,11,5,19,0.37
2013-2-14,63.7,61.4,59.5,61.7,59.7,57.7,98,94,90,30.07,29.93,5,1,7,0.50
2013-2-15,67.9,48.6,55.9,59.2,24.7,-99.9,99,66,57,30.10,29.98,5,-190,7,0.01
2013-2-16,68.9,57.9,52.0,53.0,46.7,34.1,89,68,45,30.15,29.97,16,6,31,0.00
2013-2-17,53.5,47.3,39.6,36.3,26.2,18.2,72,45,30,30.36,30.16,10,5,14,0.00
2013-2-18,69.8,53.5,37.6,49.9,37.4,25.0,84,57,30,30.38,30.21,10,4,19,0.00
2013-2-19,77.4,64.9,52.3,61.7,55.6,48.1,91,73,50,30.23,30.09,9,4,19,0.00
2013-2-20,77.4,65.5,60.1,63.7,59.9,54.5,96,83,61,30.13,30.02,7,2,9,0.00
2013-2-21,82.4,68.8,60.1,66.2,61.4,54.9,92,78,56,30.12,29.99,8,3,11,0.00
2013-2-22,83.0,71.6,62.6,69.8,65.7,60.4,96,83,61,30.07,30.00,8,3,17,0.00
2013-2-23,79.2,72.7,68.9,72.5,69.5,67.5,96,90,77,30.01,29.91,9,5,17,0.00
2013-2-24,79.4,71.9,68.4,72.5,68.7,66.6,98,90,74,29.97,29.88,9,3,14,0.00
2013-2-25,82.8,74.5,68.4,71.2,69.1,67.2,97,84,63,29.91,29.78,10,5,16,0.00
2013-2-26,76.5,72.1,66.0,71.9,67.2,61.0,93,85,66,29.90,29.70,12,6,20,0.28
2013-2-27,71.5,64.8,59.2,61.2,56.4,52.4,88,75,57,30.00,29.89,8,3,11,0.00
2013-2-28,73.2,63.4,54.1,57.5,52.2,47.5,92,68,48,30.02,29.93,9,4,16,0.00
2013-3-1,64.7,57.8,53.5,48.4,43.6,36.6,75,59,48,30.04,29.93,10,5,14,0.00
2013-3-2,59.9,54.6,49.2,42.9,39.5,35.6,70,57,47,30.10,30.00,12,6,20,0.01
2013-3-3,55.7,48.8,43.6,38.8,34.9,29.8,67,59,49,30.18,30.01,12,6,22,0.00
2013-3-4,64.8,52.7,43.5,39.7,35.8,28.9,79,54,34,30.25,30.14,7,3,11,0.00
2013-3-5,73.3,59.7,41.9,62.3,51.1,38.7,93,75,53,30.18,30.05,9,3,14,0.00
2013-3-6,66.6,59.4,53.6,63.7,46.5,37.0,91,64,41,30.16,29.98,13,8,21,0.00
2013-3-7,63.7,52.0,44.9,42.9,37.4,32.2,84,59,32,30.25,30.15,9,3,15,0.00
2013-3-8,73.0,56.7,43.3,50.9,43.4,39.2,94,66,33,30.25,30.14,6,2,11,0.00
2013-3-9,75.8,61.7,51.6,52.1,47.3,40.7,86,62,30,30.23,30.13,9,3,12,0.00
2013-3-10,79.9,67.2,59.0,57.3,54.4,50.9,85,65,39,30.16,30.05,14,5,18,0.00
2013-3-11,79.0,69.0,60.4,62.0,58.4,55.5,88,70,47,30.10,29.89,12,6,19,0.00
2013-3-12,69.8,64.6,58.0,66.8,59.3,51.1,95,83,69,30.07,29.86,9,6,16,0.35
2013-3-13,71.8,61.7,55.4,52.3,44.5,30.5,81,56,24,30.20,30.06,10,5,16,0.00
2013-3-14,63.9,57.1,50.1,50.9,37.2,24.8,79,50,24,30.30,30.18,10,5,16,0.00
2013-3-15,70.8,56.7,42.1,47.9,39.6,30.4,90,57,25,30.31,30.18,8,2,12,0.00
2013-3-16,76.0,60.1,45.5,57.2,47.1,40.5,94,67,30,30.21,30.09,7,2,13,0.00
2013-3-17,77.9,64.3,51.6,60.1,55.8,48.8,96,75,51,30.14,30.01,7,2,10,0.00
2013-3-18,74.2,68.3,60.9,67.5,62.6,57.0,91,82,74,30.04,29.87,13,4,18,0.00
2013-3-19,85.3,71.0,62.0,66.5,62.9,60.3,96,77,50,30.03,29.90,7,2,12,0.00
2013-3-20,72.1,66.5,59.5,65.8,62.1,57.2,93,86,69,29.98,29.82,11,3,13,0.18
2013-3-21,68.6,58.9,47.9,57.5,43.4,30.4,94,61,27,30.01,29.90,10,3,13,0.01
2013-3-22,77.6,62.2,45.8,67.4,52.6,41.3,94,74,37,30.02,29.89,10,3,12,0.28
2013-3-23,80.1,71.9,65.6,73.4,68.8,64.3,97,91,76,29.98,29.81,10,5,14,0.00
2013-3-24,79.0,73.5,69.3,73.5,70.6,66.2,96,91,80,29.83,29.66,12,6,22,0.00
2013-3-25,69.1,62.5,56.3,66.0,49.5,33.9,92,64,34,30.07,29.76,13,7,27,0.00
2013-3-26,58.9,54.7,47.4,46.0,37.4,33.5,65,52,42,30.27,30.06,15,7,24,0.00
2013-3-27,58.1,50.1,43.6,40.5,35.1,27.3,76,57,40,30.36,30.24,9,4,14,0.00
2013-3-28,69.6,55.3,42.2,44.5,37.1,29.1,90,56,24,30.32,30.22,9,2,12,0.00
2013-3-29,75.4,60.3,46.2,50.9,43.2,32.6,93,59,21,30.34,30.21,7,2,12,0.00
2013-3-30,77.2,63.2,49.9,54.4,50.6,46.1,91,66,36,30.27,30.15,8,3,16,0.00
2013-3-31,80.1,67.2,55.1,62.0,56.5,50.4,93,71,38,30.17,30.01,8,3,17,0.00
2013-4-1,81.8,72.9,66.4,69.2,65.0,61.4,89,77,60,30.04,29.97,11,4,17,0.00
2013-4-2,84.0,70.3,60.9,66.5,61.7,58.6,95,76,49,30.10,30.01,6,2,11,0.00
2013-4-3,85.3,72.7,63.1,68.7,65.1,59.5,94,79,52,30.09,29.94,12,5,17,0.06
2013-4-4,74.0,70.3,67.3,70.1,67.1,63.9,96,90,72,30.05,29.86,11,5,16,0.71
2013-4-5,74.0,67.3,62.6,67.6,61.7,56.2,95,83,56,30.01,29.82,11,5,16,0.02
2013-4-6,76.1,64.7,56.0,60.7,55.5,51.1,86,73,48,30.12,30.01,9,4,13,0.00
2013-4-7,82.4,70.7,62.0,62.2,58.9,54.8,92,69,39,30.15,30.06,9,4,12,0.00
2013-4-8,86.5,74.4,65.8,64.5,60.1,53.4,86,64,34,30.13,30.04,10,4,13,0.00
2013-4-9,86.1,74.3,64.3,66.8,63.4,60.3,91,71,43,30.15,30.06,10,5,17,0.00
2013-4-10,88.6,76.5,66.8,67.1,64.2,60.9,90,68,40,30.11,29.96,10,4,14,0.00
2013-4-11,89.0,78.4,72.7,72.1,70.1,66.0,92,77,53,29.98,29.81,13,7,20,0.00
2013-4-12,79.4,76.7,71.8,74.6,72.4,68.3,91,87,82,29.93,29.78,11,6,19,0.00
2013-4-13,88.6,75.9,68.4,69.4,66.4,61.0,94,74,40,29.98,29.89,7,2,10,0.00
2013-4-14,85.1,75.7,68.1,72.8,68.2,60.4,90,78,62,30.01,29.85,13,6,26,0.02
2013-4-15,89.7,77.6,68.4,69.8,65.0,60.4,83,67,45,30.07,29.92,7,2,11,0.00
2013-4-16,92.7,80.6,68.6,72.9,68.0,64.7,93,68,40,30.13,30.02,10,4,14,0.00
2013-4-17,88.2,78.8,70.9,68.3,64.5,58.3,88,64,37,30.14,30.01,10,6,13,0.00
2013-4-18,89.3,79.0,70.1,71.7,67.5,63.9,89,70,48,30.04,29.94,9,4,14,0.00
2013-4-19,89.7,80.0,73.5,73.3,71.1,66.4,92,76,48,30.01,29.92,13,6,20,0.00
2013-4-20,77.0,69.7,62.1,73.2,63.5,57.9,89,81,67,30.15,29.97,9,4,16,0.02
2013-4-21,82.6,70.6,61.0,69.2,64.1,57.8,92,81,60,30.15,30.03,9,5,13,0.07
2013-4-22,81.6,72.5,67.4,69.4,66.8,63.1,97,83,60,30.08,29.98,12,4,16,0.05
2013-4-23,85.7,74.6,66.1,66.9,63.0,58.4,89,69,42,30.11,30.01,9,5,17,0.00
2013-4-24,87.8,74.4,65.2,66.6,61.8,50.6,88,68,29,30.14,30.07,9,4,11,0.00
2013-4-25,85.1,74.9,64.3,68.3,64.7,61.3,93,72,49,30.20,30.10,8,3,11,0.00
2013-4-26,88.6,76.9,65.6,69.2,65.4,61.2,90,69,42,30.24,30.15,7,3,11,0.00
2013-4-27,87.6,77.8,71.1,69.2,66.0,58.6,90,69,39,30.21,30.08,10,5,16,0.00
2013-4-28,87.6,77.3,69.9,69.2,64.5,58.6,82,66,38,30.12,29.96,11,5,20,0.03
2013-4-29,85.1,77.1,70.1,70.5,67.0,62.2,86,72,51,30.02,29.90,9,4,13,0.01
2013-4-30,88.8,77.8,68.8,70.7,68.0,63.1,95,74,43,30.00,29.89,8,3,13,0.39
2013-5-1,75.1,71.7,67.1,72.9,69.1,65.9,96,92,86,30.00,29.91,8,4,12,1.48
2013-5-2,81.4,72.6,67.1,71.6,68.3,65.6,96,87,68,29.97,29.81,8,4,14,0.00
2013-5-3,83.8,75.3,69.4,71.0,68.3,65.4,97,80,60,29.83,29.72,8,3,14,0.27
2013-5-4,81.2,73.3,66.9,69.0,66.4,64.0,93,80,62,29.83,29.69,10,4,18,0.01
2013-5-5,76.3,69.8,63.7,66.4,56.3,49.4,92,64,41,29.95,29.81,10,6,21,0.02
2013-5-6,75.1,69.7,64.2,63.3,57.2,53.7,82,65,50,30.02,29.90,7,4,14,0.03
2013-5-7,78.5,69.3,59.5,62.0,57.8,53.3,88,68,48,30.06,29.98,9,4,13,0.00
2013-5-8,80.1,70.5,59.8,63.2,59.6,56.4,93,70,48,30.14,30.04,7,2,13,0.00
2013-5-9,84.7,72.4,61.5,67.7,62.4,58.4,94,73,42,30.15,30.09,7,2,12,0.00
2013-5-10,89.3,77.4,65.6,70.6,66.0,58.2,94,71,36,30.14,29.99,9,3,16,0.00
2013-5-11,88.6,78.3,72.7,74.6,71.1,67.8,95,80,54,30.06,29.99,9,3,14,0.00
2013-5-12,87.4,77.3,71.3,74.3,69.3,66.6,94,78,56,30.05,29.94,8,2,11,0.00
2013-5-13,85.1,74.3,66.6,70.2,59.1,46.9,93,63,31,30.13,30.01,11,3,13,0.00
2013-5-14,84.0,72.5,64.5,60.5,48.3,38.9,70,44,23,30.22,30.12,9,4,13,0.00
2013-5-15,87.0,74.4,62.9,62.5,58.0,50.7,85,59,30,30.21,30.07,8,3,11,0.00
2013-5-16,88.6,76.3,67.4,67.4,62.4,54.6,85,64,34,30.13,29.99,7,3,10,0.00
2013-5-17,87.6,78.0,69.4,68.3,65.3,62.7,85,67,46,30.09,30.02,7,3,11,0.00
2013-5-18,90.7,80.0,72.1,73.2,67.5,61.4,91,68,39,30.10,30.01,7,3,11,0.00
2013-5-19,90.7,79.6,69.9,72.2,67.3,62.6,93,69,42,30.09,29.98,6,2,11,0.00
2013-5-20,91.0,80.4,73.9,73.6,68.9,61.9,85,69,45,30.07,29.97,11,3,13,0.00
2013-5-21,88.8,78.4,71.6,70.5,68.9,65.7,90,74,49,30.02,29.92,12,4,12,0.00
2013-5-22,89.3,79.2,72.1,73.3,70.0,66.6,90,75,49,29.97,29.89,7,3,13,0.00
2013-5-23,89.5,80.0,70.6,74.2,70.6,67.5,93,74,55,30.01,29.92,8,3,11,0.00
2013-5-24,92.1,81.2,71.1,75.7,68.6,62.0,93,68,39,30.08,29.98,9,3,12,0.00
2013-5-25,92.9,82.5,75.3,70.4,63.8,55.9,80,56,30,30.16,30.05,11,6,14,0.00
2013-5-26,80.7,75.7,72.0,62.1,60.9,53.4,70,61,39,30.18,30.12,10,6,15,0.00
2013-5-27,91.0,79.9,70.6,66.3,62.1,56.4,82,57,33,30.18,30.04,11,6,18,0.00
2013-5-28,92.3,79.1,72.8,76.3,69.9,66.6,91,75,45,30.14,30.01,13,7,18,0.52
2013-5-29,88.8,79.0,73.7,73.6,70.7,66.1,92,77,54,30.08,30.01,14,8,26,0.29
2013-5-30,88.6,80.9,75.8,73.0,70.7,67.6,89,72,54,30.08,29.99,16,9,26,0.00
2013-5-31,89.0,79.9,74.7,74.7,70.5,68.7,83,74,55,30.07,29.99,12,8,19,0.00
2013-6-1,90.7,81.4,74.9,76.6,73.6,70.4,95,78,54,30.02,29.94,8,4,13,2.10
2013-6-2,90.7,80.7,73.7,76.9,74.0,72.2,97,81,57,29.99,29.89,9,3,12,0.00
2013-6-3,86.3,80.3,76.0,78.2,73.9,72.3,93,81,66,29.99,29.89,10,3,13,0.02
2013-6-4,87.4,80.6,76.1,74.7,72.8,69.6,91,78,62,30.01,29.93,8,3,18,0.01
2013-6-5,85.1,79.3,74.7,74.3,72.4,70.3,92,80,63,30.00,29.88,10,6,14,0.15
2013-6-6,82.0,77.3,74.2,76.0,73.4,70.9,97,88,74,29.89,29.64,15,10,27,3.38
2013-6-7,87.2,79.4,72.5,74.6,72.4,69.2,93,80,64,29.95,29.78,8,3,12,0.00
2013-6-8,88.8,79.6,73.5,76.3,73.8,71.0,95,83,65,30.10,29.96,11,3,14,0.50
2013-6-9,89.9,79.7,73.3,79.2,74.0,71.8,96,84,59,30.09,30.01,8,3,12,0.10
2013-6-10,91.0,82.4,76.8,76.9,74.4,72.1,95,78,56,30.08,30.01,8,3,11,0.00
2013-6-11,88.2,83.2,73.7,79.0,76.0,70.6,95,80,64,30.10,30.01,10,2,11,2.73
2013-6-12,90.7,70.4,74.4,79.8,43.2,-99.9,97,59,58,30.08,30.00,7,-171,10,0.31
2013-6-13,90.5,49.7,79.4,76.8,0.3,-99.9,85,39,52,30.04,29.91,6,-414,11,0.00
2013-6-14,89.3,82.3,77.6,74.7,73.3,70.7,85,75,55,29.96,29.88,8,4,15,0.00
2013-6-15,89.7,83.3,78.5,77.1,75.3,73.0,89,77,64,30.05,29.91,7,3,13,0.00
2013-6-16,91.2,84.0,79.0,78.2,75.8,74.0,90,77,60,30.07,30.00,8,3,16,0.00
2013-6-17,93.8,85.1,77.7,76.8,74.3,71.7,91,72,50,30.07,29.98,6,2,10,0.00
2013-6-18,92.1,84.5,76.5,76.7,74.4,72.2,91,73,54,30.05,29.96,7,2,11,0.00
2013-6-19,92.9,85.0,78.6,77.9,75.2,73.2,90,74,54,30.03,29.96,7,2,11,0.00
2013-6-20,92.1,83.2,76.7,78.8,73.8,70.1,91,75,50,30.10,30.00,7,2,10,0.14
2013-6-21,88.8,79.6,74.9,76.8,72.6,68.4,91,80,59,30.11,30.03,7,2,12,0.14
2013-6-22,92.1,81.0,74.2,76.2,71.5,67.2,94,75,47,30.11,30.03,9,2,12,0.02
2013-6-23,92.5,81.5,74.0,76.1,73.1,67.1,93,77,44,30.13,30.05,15,3,17,0.62
2013-6-24,91.4,82.7,76.1,76.2,73.6,69.2,92,76,49,30.17,30.05,9,4,14,1.62
2013-6-25,91.8,82.1,74.4,76.9,73.6,68.2,96,77,47,30.15,30.01,10,3,16,0.78
2013-6-26,89.9,77.7,75.4,77.1,74.1,71.4,96,89,65,30.06,30.00,13,2,14,0.55
2013-6-27,91.0,81.9,74.4,77.7,73.9,70.6,94,78,59,30.05,29.94,8,2,13,0.00
2013-6-28,90.7,83.6,76.3,76.7,74.9,73.1,92,76,61,29.97,29.84,9,4,17,0.00
2013-6-29,88.0,81.4,77.7,77.1,74.2,71.1,89,79,70,29.88,29.80,11,3,12,0.18
2013-6-30,90.1,83.6,77.9,77.8,74.9,72.1,87,76,63,29.87,29.79,10,5,22,0.02
2013-7-1,79.6,77.1,73.9,77.5,74.4,71.4,95,91,87,29.98,29.86,9,4,12,2.15
2013-7-2,89.3,78.8,73.7,77.8,73.0,-99.9,97,85,63,30.07,29.94,15,5,19,2.63
2013-7-3,88.8,77.7,72.1,77.4,74.0,70.9,98,89,66,30.10,30.01,20,5,25,3.00
2013-7-4,89.7,78.3,73.5,76.3,73.9,71.7,98,88,62,30.14,30.03,11,5,17,0.40
2013-7-5,89.0,77.9,73.3,76.9,74.3,71.4,96,90,64,30.13,30.06,18,4,24,1.45
2013-7-6,91.0,80.5,75.1,77.0,74.8,70.1,96,84,52,30.10,30.01,11,4,14,0.00
2013-7-7,90.5,82.2,76.7,76.3,74.4,71.9,93,79,55,30.12,30.01,10,4,19,0.40
2013-7-8,92.1,81.6,76.5,77.0,74.6,70.8,95,81,52,30.15,30.06,10,2,16,0.00
2013-7-9,91.8,81.7,74.6,76.9,73.4,69.8,93,78,50,30.16,30.04,7,2,12,0.50
2013-7-10,89.3,80.8,74.6,75.7,73.3,68.4,94,80,55,30.08,29.95,8,2,12,0.06
2013-7-11,87.2,79.9,75.8,78.5,74.6,72.7,95,85,68,30.02,29.92,7,2,12,0.67
2013-7-12,89.0,81.0,75.8,77.5,74.0,71.7,94,80,61,29.95,29.88,6,2,8,0.00
2013-7-13,87.2,78.6,75.8,78.3,74.0,70.8,94,86,69,29.97,29.90,7,1,12,1.24
2013-7-14,85.1,78.7,75.1,79.1,74.5,72.1,94,87,73,30.07,29.94,7,2,12,0.34
2013-7-15,90.1,80.4,74.7,74.8,72.8,70.7,92,79,56,30.10,30.00,7,4,13,0.00
2013-7-16,89.9,79.7,76.7,74.7,72.6,70.0,90,80,54,30.14,30.06,19,5,19,0.01
2013-7-17,90.1,78.5,72.3,76.0,73.2,67.9,96,85,57,30.15,30.05,14,4,21,0.65
2013-7-18,86.7,78.0,73.9,75.0,73.1,71.2,95,86,62,30.11,30.03,11,4,16,0.09
2013-7-19,87.6,78.0,74.0,76.6,73.8,71.9,96,87,67,30.12,30.04,12,3,15,0.54
2013-7-20,89.9,79.9,74.6,78.8,74.5,71.7,95,85,59,30.10,30.01,10,2,17,0.00
2013-7-21,90.5,83.1,75.8,79.3,76.0,73.0,95,80,65,30.11,30.03,8,3,12,0.00
2013-7-22,90.3,83.8,78.1,78.6,76.1,74.6,94,78,63,30.12,30.06,8,3,13,0.00
2013-7-23,89.0,82.3,77.2,77.0,74.8,73.0,91,79,61,30.08,29.96,8,3,14,0.00
2013-7-24,88.2,83.5,80.3,76.8,75.5,74.0,85,77,65,30.00,29.90,9,5,16,0.00
2013-7-25,88.2,83.4,78.1,77.4,75.9,74.0,89,79,65,30.00,29.87,10,6,17,0.48
2013-7-26,90.3,82.5,76.5,80.6,76.4,74.0,96,83,60,30.01,29.95,8,2,14,0.06
2013-7-27,91.4,83.9,77.2,79.0,74.6,69.9,94,75,51,30.00,29.92,6,2,11,0.01
2013-7-28,91.0,81.8,76.5,78.0,74.3,70.6,93,79,61,30.05,29.93,7,1,10,0.00
2013-7-29,92.3,83.1,74.4,77.7,73.7,67.8,93,75,49,30.13,30.01,5,1,8,0.02
2013-7-30,92.7,82.3,74.7,77.9,74.5,69.0,95,79,52,30.16,30.04,7,1,17,0.39
2013-7-31,92.5,82.4,76.3,79.5,75.2,69.6,96,80,50,30.13,29.99,7,2,7,0.04
2013-8-1,89.7,82.3,77.6,76.6,74.3,70.2,90,78,60,30.05,29.95,11,2,13,0.03
2013-8-2,91.0,83.1,75.6,77.8,74.5,72.5,92,76,56,30.04,29.94,6,2,9,0.00
2013-8-3,91.6,83.7,76.3,77.7,75.0,73.5,93,76,57,30.09,29.99,7,2,14,0.00
2013-8-4,91.6,84.4,78.1,78.5,76.1,74.4,92,77,60,30.08,29.99,8,2,12,0.00
2013-8-5,92.7,85.7,79.6,78.3,76.4,74.2,89,74,55,30.02,29.93,7,3,12,0.00
2013-8-6,91.2,82.1,77.0,80.4,76.2,72.1,94,83,62,29.99,29.89,5,1,10,1.39
2013-8-7,92.5,82.0,75.3,78.4,75.5,71.7,95,82,56,29.95,29.88,11,2,15,0.37
2013-8-8,91.8,81.7,73.7,77.7,75.6,70.9,95,83,57,30.01,29.92,11,5,14,1.65
2013-8-9,92.3,80.3,73.5,77.5,74.5,71.2,96,84,52,30.05,29.95,8,3,17,2.08
2013-8-10,92.1,86.2,75.1,77.1,75.3,73.0,96,71,55,30.11,30.02,9,4,12,0.01
2013-8-11,93.6,84.6,78.1,77.7,75.3,72.2,90,75,50,30.14,30.04,7,4,10,0.00
2013-8-12,92.7,85.1,77.2,80.5,76.5,73.7,92,76,55,30.12,29.99,7,2,10,0.00
2013-8-13,91.4,84.9,77.7,78.4,75.7,71.7,90,75,53,30.04,29.93,6,2,12,0.00
2013-8-14,91.8,84.3,76.8,80.2,76.1,73.8,94,77,59,29.99,29.92,7,2,12,0.34
2013-8-15,91.0,83.5,77.6,78.2,75.5,73.4,90,77,63,30.03,29.93,9,3,14,0.00
2013-8-16,90.7,86.1,81.8,76.7,75.2,72.1,84,70,57,30.03,29.95,6,2,11,0.00
2013-8-17,92.9,83.1,77.0,79.4,75.5,71.6,95,79,55,30.07,29.97,10,3,16,0.15
2013-8-18,91.2,81.7,76.7,78.8,75.9,73.1,95,84,59,30.08,30.00,12,4,18,0.29
2013-8-19,92.3,80.8,74.2,78.3,75.0,69.7,95,84,52,30.06,29.94,10,3,13,1.32
2013-8-20,91.4,80.9,75.1,77.7,74.9,72.5,97,83,58,30.07,29.98,8,2,12,0.06
2013-8-21,92.5,81.7,76.5,78.0,75.2,70.3,94,82,54,30.09,29.96,14,4,16,0.25
2013-8-22,91.6,80.2,74.2,77.8,75.5,71.7,95,87,61,30.08,29.97,12,4,17,1.47
2013-8-23,91.2,80.9,75.6,78.7,75.7,70.8,96,85,57,30.01,29.95,9,3,15,1.02
2013-8-24,91.4,81.2,76.0,78.4,75.0,72.5,95,82,61,30.11,29.98,9,3,16,0.00
2013-8-25,88.2,80.1,76.8,76.0,74.5,73.0,92,84,64,30.15,30.06,9,3,11,0.01
2013-8-26,90.5,80.2,76.5,76.1,74.6,71.8,93,84,57,30.13,30.00,12,3,12,0.51
2013-8-27,90.5,80.0,76.0,75.6,73.5,69.5,94,82,51,30.04,29.96,7,2,10,0.29
2013-8-28,89.9,81.3,76.7,75.3,73.5,71.2,95,79,57,30.03,29.96,7,2,10,0.10
2013-8-29,90.5,81.9,73.5,76.0,73.5,71.2,96,77,55,30.03,29.94,7,2,11,0.00
2013-8-30,79.2,78.7,78.3,74.3,73.9,73.6,87,85,83,29.98,29.97,0,0,0,0.00
2013-8-31,88.6,83.3,74.4,76.7,74.1,71.6,95,75,60,29.99,29.89,6,2,7,2.87
2013-9-1,90.1,82.4,75.8,78.2,73.8,71.0,94,77,57,29.98,29.90,7,2,11,0.20
2013-9-2,90.7,82.6,76.7,78.4,74.3,71.9,94,78,55,30.01,29.93,6,2,10,0.06
2013-9-3,91.2,83.7,76.7,77.5,74.3,70.1,92,75,56,30.02,29.92,5,2,11,0.00
2013-9-4,92.1,81.5,74.9,77.5,74.9,71.7,95,82,53,30.08,29.96,6,2,10,0.53
2013-9-5,92.5,82.6,76.0,78.7,75.0,68.2,95,79,55,30.08,29.98,6,2,11,0.00
2013-9-6,91.4,81.9,74.9,81.3,75.6,70.6,92,82,58,30.04,29.93,16,2,17,0.50
2013-9-7,89.5,83.6,76.5,74.5,71.9,65.4,87,69,45,30.00,29.91,6,3,11,0.00
2013-9-8,89.9,81.9,76.0,74.8,72.7,70.0,89,75,54,29.96,29.85,7,3,12,0.00
2013-9-9,90.7,82.2,77.0,74.6,72.9,68.1,88,75,48,30.01,29.92,6,3,10,0.00
2013-9-10,90.5,85.7,81.1,72.8,69.1,64.5,76,58,47,30.06,29.98,10,7,13,0.00
2013-9-11,91.8,82.6,77.0,75.6,71.6,64.3,90,71,43,30.07,29.97,10,5,14,0.04
2013-9-12,89.5,80.9,75.6,77.2,73.7,69.4,92,80,54,30.02,29.87,15,2,19,1.35
2013-9-13,86.5,82.4,76.7,78.0,74.0,72.3,88,76,65,29.85,29.81,6,2,7,0.02
2013-9-14,89.9,81.7,74.7,77.4,74.1,72.2,95,79,62,29.97,29.83,5,1,6,0.00
2013-9-15,92.9,82.4,74.6,77.8,74.6,69.1,91,79,52,30.03,29.94,19,4,25,0.00
2013-9-16,80.3,78.0,77.4,73.9,73.1,72.2,88,85,78,30.01,29.97,12,2,13,0.02
2013-9-17,90.7,80.7,75.6,75.6,73.1,70.3,92,79,52,30.04,29.92,12,4,17,0.01
2013-9-18,90.3,81.0,76.3,75.6,73.6,70.8,91,79,57,30.01,29.94,11,5,18,0.02
2013-9-19,77.6,76.0,74.7,74.6,73.5,72.4,95,92,87,30.02,29.98,7,2,12,0.56
2013-9-20,88.0,80.5,74.4,74.5,71.6,66.6,95,76,52,30.01,29.88,7,3,12,0.00
2013-9-21,88.4,80.7,72.5,74.9,70.5,67.7,89,72,55,29.93,29.77,6,3,10,0.00
2013-9-22,88.4,82.3,78.3,78.6,75.2,71.2,91,79,64,29.84,29.75,10,2,19,0.05
2013-9-23,81.6,78.7,76.8,78.7,76.2,74.5,95,92,88,29.93,29.81,8,3,12,0.88
2013-9-24,81.1,77.9,74.4,77.4,75.6,73.2,97,93,85,29.95,29.83,8,3,12,1.58
2013-9-25,80.3,71.1,70.9,77.4,60.7,-99.9,97,85,85,29.91,29.78,12,-67,19,1.59
2013-9-26,88.6,81.5,75.8,78.5,75.7,71.0,93,83,68,29.87,29.78,9,4,15,0.00
2013-9-27,85.7,77.2,71.1,73.1,69.9,68.3,92,79,57,29.96,29.86,8,3,16,0.00
2013-9-28,87.6,78.5,72.5,73.4,71.1,69.0,93,79,57,29.99,29.91,11,4,19,0.00
2013-9-29,87.8,79.3,72.5,72.5,69.5,65.3,90,73,48,29.99,29.89,6,3,10,0.00
2013-9-30,88.4,80.0,74.2,73.9,71.1,66.8,91,75,51,29.99,29.90,7,3,11,0.00
2013-10-1,89.5,81.7,75.1,74.3,71.3,66.8,91,72,50,30.04,29.95,11,5,16,0.00
2013-10-2,88.6,81.4,74.6,73.2,70.9,69.5,88,72,55,30.04,29.96,9,5,13,0.00
2013-10-3,88.8,81.1,75.1,74.6,71.1,68.2,87,73,51,30.06,29.96,9,4,11,0.00
2013-10-4,88.0,81.0,76.5,75.1,72.8,68.8,89,77,56,30.08,29.99,7,3,10,0.00
2013-10-5,81.1,80.4,79.9,73.2,71.3,70.6,80,74,72,29.98,29.98,7,6,11,0.00
2013-10-6,89.0,81.0,73.7,75.2,72.0,67.6,93,75,51,29.98,29.85,7,2,12,0.00
2013-10-7,87.0,80.0,74.6,78.6,74.8,71.8,95,85,72,29.86,29.74,13,6,20,0.93
2013-10-8,87.4,81.0,76.1,76.1,73.9,70.6,90,80,66,29.95,29.79,8,4,13,0.01
2013-10-9,80.5,75.0,70.6,71.4,68.5,65.7,86,81,67,30.04,29.94,7,3,11,0.00
2013-10-10,83.6,76.4,70.4,70.1,67.4,65.7,85,74,62,30.03,29.96,6,2,11,0.00
2013-10-11,86.3,77.8,66.6,70.4,65.9,62.9,94,68,51,30.04,29.95,6,2,11,0.00
2013-10-12,86.1,74.5,66.6,70.0,64.0,60.4,94,72,44,30.04,29.97,8,2,13,0.00
2013-10-13,85.7,74.8,64.0,71.0,62.9,59.0,94,69,42,30.08,29.98,5,1,9,0.00
2013-10-14,84.5,75.9,68.3,69.8,66.6,63.6,91,74,51,30.05,29.93,8,2,13,0.00
2013-10-15,81.2,73.3,68.1,72.0,68.4,65.7,95,85,72,30.00,29.90,6,2,11,0.00
2013-10-16,82.4,74.9,68.8,71.5,68.5,66.4,94,81,61,29.97,29.90,6,1,7,0.00
2013-10-17,87.6,77.1,68.9,73.8,69.9,66.5,96,80,57,29.97,29.90,6,1,10,0.00
2013-10-18,89.5,78.8,70.8,74.4,71.1,69.0,95,79,53,29.97,29.89,7,2,10,0.00
2013-10-19,88.4,79.2,72.3,76.0,73.3,70.5,95,83,62,29.94,29.86,6,2,11,0.00
2013-10-20,88.8,79.5,74.0,77.5,72.7,70.0,95,81,57,29.95,29.87,6,1,11,0.00
2013-10-21,89.5,79.7,73.7,75.8,72.2,66.6,93,79,48,29.99,29.92,7,2,10,0.00
2013-10-22,86.7,77.3,71.1,76.3,72.3,69.6,96,85,66,29.95,29.83,10,2,17,0.36
2013-10-23,79.8,73.9,69.9,73.1,64.4,53.9,95,74,47,30.01,29.81,10,3,14,0.00
2013-10-24,72.0,67.5,63.2,59.5,50.3,45.2,74,55,45,30.16,30.01,6,3,12,0.00
2013-10-25,81.4,67.7,56.0,59.8,54.8,47.9,93,67,37,30.24,30.14,7,2,11,0.00
2013-10-26,79.0,68.1,61.3,59.3,56.6,48.6,85,68,36,30.21,30.10,8,3,12,0.00
2013-10-27,78.6,67.5,59.0,59.8,56.5,52.5,90,70,43,30.13,30.05,6,2,10,0.00
2013-10-28,83.0,70.5,62.7,62.0,57.2,50.1,85,65,35,30.19,30.09,6,2,9,0.00
2013-10-29,84.7,74.4,66.3,66.5,63.9,60.0,93,72,44,30.22,30.12,8,3,14,0.00
2013-10-30,86.1,76.3,68.8,68.5,65.8,63.6,90,72,48,30.22,30.08,8,4,12,0.00
2013-10-31,85.7,78.1,73.2,69.9,67.3,64.7,88,71,50,30.12,29.96,4,1,7,0.00
2013-11-1,84.5,79.6,71.8,74.5,73.3,68.9,94,81,69,29.99,29.88,9,4,21,0.00
2013-11-2,77.4,71.9,64.0,74.9,67.7,60.2,94,87,72,29.99,29.81,8,2,12,1.30
2013-11-3,76.0,66.4,59.0,60.1,51.1,41.1,92,61,30,30.12,29.98,7,3,12,0.00
2013-11-4,79.6,69.9,60.9,64.4,58.1,50.5,84,67,48,30.15,30.08,11,5,17,0.00
2013-11-5,83.6,76.9,65.8,68.7,67.1,63.4,93,72,59,30.15,30.04,13,8,18,0.00
2013-11-6,84.5,76.2,70.8,68.8,67.1,63.2,88,75,49,30.10,30.01,8,4,14,0.00
2013-11-7,82.2,73.3,68.9,70.2,67.1,65.0,93,82,61,30.06,29.97,8,2,10,0.00
2013-11-8,79.0,70.9,65.2,68.3,62.4,56.2,93,76,54,30.12,30.00,9,4,14,0.00
2013-11-9,82.6,73.2,65.2,66.8,63.3,59.9,83,72,55,30.15,30.07,11,6,14,0.00
2013-11-10,81.8,73.4,66.9,67.7,64.8,62.4,88,75,56,30.16,30.07,5,2,11,0.00
2013-11-11,82.4,72.8,66.3,67.6,65.1,63.1,91,78,56,30.15,30.06,8,3,16,0.00
2013-11-12,78.1,70.4,65.2,68.7,65.3,55.7,95,84,62,30.11,30.01,5,2,10,0.00
2013-11-13,69.3,61.3,54.7,55.7,49.8,46.5,78,66,56,30.31,30.08,10,6,18,0.00
2013-11-14,77.0,64.2,53.8,58.4,53.3,47.5,86,69,48,30.29,30.16,11,5,17,0.00
2013-11-15,71.5,67.9,64.2,66.0,62.2,58.0,90,82,73,30.17,30.05,7,3,10,0.05
2013-11-16,74.6,71.1,68.1,70.8,67.9,65.3,95,90,82,30.12,30.02,10,4,16,0.10
2013-11-17,83.6,74.6,69.6,71.7,67.8,64.3,93,80,63,30.08,29.99,6,3,11,0.01
2013-11-18,84.0,77.9,67.9,72.3,70.4,66.2,96,79,64,30.02,29.93,7,2,11,0.00
2013-11-19,81.1,74.1,67.3,71.2,67.4,60.5,95,80,68,29.97,29.87,7,2,12,0.01
2013-11-20,80.9,73.7,66.0,71.1,68.4,61.8,91,84,72,30.09,29.97,8,4,13,0.02
2013-11-21,84.9,75.8,71.3,71.6,69.8,68.7,93,82,62,30.17,30.07,10,6,18,0.00
2013-11-22,84.3,75.8,70.4,71.0,68.4,65.0,94,79,58,30.18,30.08,9,4,11,0.00
2013-11-23,84.0,72.5,64.8,67.7,65.2,61.0,94,79,52,30.11,30.01,7,2,11,0.00
2013-11-24,69.8,65.9,59.3,66.8,59.6,51.4,93,80,69,30.22,30.04,11,6,19,0.00
2013-11-25,75.4,68.0,59.5,63.0,57.7,51.9,81,70,57,30.22,30.04,13,8,17,0.01
2013-11-26,81.2,73.7,68.6,73.6,70.1,63.2,95,89,74,30.04,29.76,14,8,26,0.43
2013-11-27,72.5,63.5,47.7,71.0,56.1,40.0,96,77,64,30.21,29.74,13,8,21,0.02
2013-11-28,63.7,50.8,39.5,49.7,40.7,30.5,84,69,40,30.36,30.21,6,3,10,0.00
2013-11-29,72.3,61.1,52.5,57.1,52.8,48.7,91,75,52,30.36,30.26,7,4,13,0.00
2013-11-30,75.8,64.7,56.2,62.3,57.9,50.4,93,79,60,30.32,30.17,7,3,11,0.00
2013-12-1,73.9,63.2,59.0,64.9,60.1,57.0,97,90,71,30.19,29.99,6,2,8,0.00
2013-12-2,70.1,65.6,59.0,63.3,57.1,52.7,98,75,56,29.99,29.84,5,1,6,0.00
2013-12-3,78.6,68.4,56.9,67.2,61.8,54.0,96,80,59,29.98,29.88,7,2,13,0.00
2013-12-4,82.4,72.5,65.3,70.9,67.0,63.8,96,84,61,30.07,29.95,5,2,12,0.00
2013-12-5,82.6,75.1,66.4,68.2,65.9,63.7,96,74,54,30.16,30.07,9,3,11,0.00
2013-12-6,83.8,73.2,65.0,71.6,68.0,63.5,97,85,61,30.16,30.07,10,3,14,0.00
2013-12-7,83.6,73.4,66.3,69.6,66.3,61.8,96,80,48,30.23,30.13,4,1,7,0.00
2013-12-8,84.3,73.1,64.3,70.9,66.3,62.5,97,81,57,30.21,30.08,9,2,13,0.01
2013-12-9,82.8,73.3,65.6,71.6,67.9,63.7,95,84,64,30.17,30.07,8,3,14,0.00
2013-12-10,81.6,72.3,62.6,71.1,67.6,61.1,97,86,67,30.16,30.08,8,2,12,0.00
2013-12-11,81.4,70.9,64.0,68.9,64.1,57.2,92,80,59,30.24,30.14,8,4,10,0.00
2013-12-12,72.1,65.0,56.3,65.2,51.2,33.2,95,66,30,30.31,30.19,6,4,12,0.00
2013-12-13,75.4,63.7,53.1,59.3,51.9,40.3,86,67,41,30.28,30.09,9,4,13,0.00
2013-12-14,66.9,65.7,65.2,62.9,60.9,59.3,87,84,80,30.10,30.03,7,5,10,0.00
2013-12-15,71.8,65.4,58.9,60.3,58.4,54.4,88,78,65,30.14,29.98,7,4,12,0.02
2013-12-16,64.8,55.9,48.5,54.1,46.9,43.6,85,73,51,30.23,30.12,7,3,12,0.00
2013-12-17,69.9,56.0,49.1,49.3,45.3,40.3,86,69,37,30.26,30.17,6,2,10,0.00
2013-12-18,71.1,61.1,49.9,53.1,46.6,40.2,95,62,35,30.30,30.21,5,2,10,0.00
2013-12-19,76.3,61.9,49.4,58.3,51.0,44.8,87,69,43,30.28,30.16,8,3,12,0.00
2013-12-20,83.2,77.2,69.8,66.7,65.4,62.0,83,68,56,30.19,30.08,11,6,14,0.00
2013-12-21,85.5,74.6,67.1,70.3,67.6,64.4,94,80,60,30.12,30.00,13,5,17,0.00
2013-12-22,83.6,75.5,68.9,72.4,69.5,67.6,96,82,67,30.12,30.05,13,5,20,0.00
2013-12-23,83.4,74.7,66.9,73.7,70.6,65.1,97,88,71,30.16,30.08,13,4,21,0.00
2013-12-24,73.3,63.1,53.8,71.5,50.0,32.0,95,66,30,30.27,30.12,18,6,22,0.00
2013-12-25,75.4,63.1,50.7,58.6,48.6,36.6,76,59,52,30.26,30.12,16,5,18,0.00
2013-12-26,78.1,67.8,61.5,61.6,58.6,56.2,89,73,48,30.21,30.08,12,3,14,0.00
2013-12-27,69.4,65.1,60.9,65.7,61.3,57.0,93,87,81,30.25,30.13,17,5,18,0.05
2013-12-28,79.2,71.3,65.2,69.1,66.5,62.6,95,85,68,30.20,29.98,17,6,19,0.00
2013-12-29,75.6,70.2,63.4,71.9,67.7,61.6,94,92,87,30.02,29.88,19,5,26,0.58
2013-12-30,68.6,63.0,60.1,61.9,59.1,55.2,95,88,72,30.20,30.01,8,2,13,0.01
2013-12-31,68.4,63.9,60.5,55.2,51.8,48.9,79,65,51,30.30,30.15,10,2,13,0.00
2014-1-1,63.2,61.2,58.9,62.1,58.3,51.6,98,91,66,30.25,30.04,17,5,18,0.21
2014-1-2,77.6,68.1,59.6,73.1,66.4,55.7,99,95,82,30.04,29.84,21,5,29,0.60